[[{"header":{"parameterUnit":"m.s-1","parameterCategory":2,"la1":30.2991,"la2":30.254,"lo1":-89.0895,"lo2":-89.0444,"dy":0.0017,"dx":0.0017,"nx":28,"ny":28,"refTime":"2024-10-08T09:00:00:Z","depth":"0","parameterNumber":2,"parameterNumberName":"U-component_of_CURRENTS"},"data":[0,0,0,0,0,0,0,0,0,0,0,0,0,0,0,0,0,0,0,0,0,0,0,0,0,0,0,0,0,0,0,0,0,0,0,0,0,0,0,0,0,0,0,0,0,0,0,0,0,0,0,0,0,0,0,0,0,0,-0.225,-0.225,0,-0.2248,-0.2248,-0.2247,-0.2194,-0.2192,-0.2191,-0.219,-0.2092,-0.2091,-0.2089,0,0,0,0,0,0,0,0,0,0,0,0,0,-0.2181,-0.2182,-0.225,-0.225,-0.225,-0.2248,-0.2248,-0.2247,-0.2194,-0.2192,-0.2191,-0.219,-0.2093,-0.2091,-0.2089,0,0,0,0,0,0,0,0,0,0,0,0,0,-0.2195,-0.2183,-0.225,-0.2225,-0.2223,-0.2248,-0.2248,-0.2247,-0.2194,-0.2192,-0.2191,-0.2189,-0.2094,-0.2091,-0.2089,-0.2109,0,0,-0.2082,-0.2081,0,0,0,0,0,0,0,0,-0.2195,-0.2197,-0.2229,-0.2227,-0.2225,-0.2222,-0.2188,-0.2197,-0.2194,-0.2202,-0.219,-0.2188,-0.213,-0.2125,-0.2125,-0.2104,-0.21,-0.2082,-0.208,-0.2079,-0.2079,0,0,0,0,0,0,0,-0.2194,-0.2197,-0.2246,-0.2229,-0.2227,-0.2206,-0.2206,-0.2189,-0.2172,-0.2201,-0.2198,-0.2203,-0.2128,-0.2128,-0.2122,-0.2098,-0.2082,-0.208,-0.2078,-0.2077,-0.2097,-0.2099,0,0,0,0,0,0,-0.2203,-0.2197,-0.2246,-0.2246,-0.2209,-0.2209,-0.2209,-0.2222,-0.2174,-0.2166,-0.2205,-0.2201,-0.2133,-0.2125,-0.2119,-0.2133,-0.2079,-0.2077,-0.2076,-0.2095,-0.2098,-0.21,0,0,0,0,0,0,-0.2202,-0.2208,-0.2246,-0.2223,-0.2226,-0.2212,-0.2227,-0.2223,-0.2218,-0.2178,-0.2167,-0.2204,-0.2131,-0.2122,-0.2115,-0.2128,-0.2076,-0.2074,-0.2093,-0.2096,-0.2099,-0.2164,0,0,0,0,0,0,-0.22,-0.2208,-0.2219,-0.2224,-0.2228,-0.2268,-0.2229,-0.2224,-0.2226,-0.222,-0.2174,-0.2163,-0.2129,-0.2119,-0.2113,-0.2124,-0.2072,-0.2091,-0.2094,-0.2098,-0.2159,-0.2169,-0.2177,0,0,0,0,0,-0.2198,-0.2227,-0.222,-0.2226,-0.2245,-0.2269,-0.227,-0.2251,-0.2227,-0.2237,-0.2209,-0.2165,-0.2137,-0.2119,-0.2111,-0.2122,-0.2089,-0.2093,-0.2097,-0.2156,-0.2167,-0.2177,0,0,0,0,0,0,-0.2198,-0.2225,-0.2217,-0.2251,-0.226,-0.2261,-0.2271,-0.2258,-0.2246,-0.2233,-0.2187,-0.2177,-0.2178,-0.2151,-0.2132,-0.2143,-0.2107,-0.211,-0.2154,-0.2164,-0.2172,-0.2177,-0.207,0,0,0,0,0,-0.2207,-0.2234,-0.225,-0.2273,-0.2284,-0.2277,-0.2283,-0.2272,-0.2265,-0.2257,-0.2227,-0.2202,-0.2194,-0.2178,-0.2166,-0.2169,-0.2127,-0.2175,-0.2183,-0.2191,-0.2193,-0.2137,-0.214,-0.2114,-0.2114,-0.2114,0,0,-0.2211,-0.223,-0.2242,-0.2275,-0.2279,-0.2306,-0.2276,-0.2292,-0.2305,-0.2249,-0.2253,-0.2232,-0.2205,-0.2211,-0.2208,-0.2184,-0.2182,-0.2196,-0.2202,-0.22,-0.2142,-0.2144,-0.2145,-0.2117,-0.2116,-0.2116,0,0,-0.2232,-0.2253,-0.2279,-0.2301,-0.232,-0.2325,-0.2333,-0.2339,-0.2333,-0.2343,-0.231,-0.2298,-0.228,-0.2264,-0.2254,-0.2306,-0.2234,-0.2305,-0.234,-0.2287,-0.2287,-0.2287,-0.2253,-0.2249,-0.2302,-0.2302,-0.2302,0,-0.2231,-0.2271,-0.2289,-0.2323,-0.2343,-0.2339,-0.2368,-0.2377,-0.2375,-0.2368,-0.2351,-0.2327,-0.2306,-0.2305,-0.2332,-0.2321,-0.2284,-0.2298,-0.2294,-0.2293,-0.2292,-0.2257,-0.2252,-0.2306,-0.2305,-0.2305,-0.2304,0,-0.2269,-0.2305,-0.2327,-0.237,-0.2395,-0.2424,-0.2444,-0.2453,-0.2443,-0.2435,-0.2429,-0.2405,-0.2377,-0.2385,-0.2376,-0.237,-0.2345,-0.2313,-0.226,-0.2298,-0.2259,-0.2253,-0.2311,-0.2309,-0.2308,-0.2307,0,0,-0.2246,-0.2336,-0.2341,-0.2362,-0.2423,-0.2437,-0.2482,-0.2503,-0.2488,-0.2498,-0.2475,-0.2494,-0.2457,-0.2446,-0.2424,-0.2397,-0.2374,-0.2361,-0.2357,-0.2314,-0.2263,-0.2229,-0.2218,-0.2329,-0.2328,-0.2327,-0.2245,0,-0.2261,-0.2333,-0.2377,-0.2428,-0.2462,-0.2492,-0.2517,-0.2532,-0.2526,-0.2502,-0.2494,-0.2464,-0.2486,-0.2452,-0.244,-0.2379,-0.2357,-0.24,-0.2245,-0.2241,-0.2193,-0.221,-0.2118,-0.2034,-0.2238,-0.2237,-0.2236,0,-0.2265,-0.2319,-0.2384,-0.2438,-0.2451,-0.248,-0.2493,-0.2513,-0.2507,-0.2491,-0.2481,-0.2454,-0.2445,-0.2433,-0.2372,-0.2394,-0.2346,-0.2305,-0.2299,-0.2237,-0.2194,-0.2027,-0.2014,-0.2,-0.2225,-0.2226,-0.2227,0,-0.2214,-0.2305,-0.2354,-0.2383,-0.2455,-0.2471,-0.2494,-0.2502,-0.2481,-0.2471,-0.243,-0.2426,-0.238,-0.2346,-0.2309,-0.2319,-0.2219,-0.2205,-0.2137,-0.2134,-0.2011,-0.1999,-0.1949,-0.215,-0.215,-0.215,-0.215,0,-0.2205,-0.223,-0.2331,-0.2358,-0.2367,-0.2433,-0.2407,-0.2428,-0.2414,-0.237,-0.2405,-0.2359,-0.235,-0.2304,-0.2284,-0.2198,-0.2194,-0.2145,-0.2105,-0.2036,-0.2027,-0.1972,-0.1993,-0.2147,-0.2148,-0.2148,-0.2149,0,-0.2125,-0.2207,-0.2246,-0.2332,-0.2345,-0.2343,-0.2348,-0.2307,-0.2331,-0.2273,-0.2266,-0.2277,-0.2234,-0.2227,-0.2152,-0.2134,-0.2028,-0.2039,-0.1979,-0.1935,-0.1861,-0.189,-0.1797,-0.1745,-0.1938,-0.1937,-0.1936,0,-0.2088,-0.2112,-0.2195,-0.2194,-0.223,-0.2232,-0.2206,-0.2247,-0.2212,-0.2218,-0.2177,-0.2155,-0.2118,-0.2035,-0.1998,-0.1942,-0.1951,-0.1827,-0.1838,-0.1847,-0.1849,-0.1874,-0.1839,-0.1704,-0.1701,-0.1699,-0.1697,0,-0.1997,-0.2031,-0.2065,-0.2071,-0.2065,-0.2043,-0.2038,-0.2008,-0.2043,-0.2022,-0.2009,-0.1995,-0.1951,-0.1871,-0.1822,-0.178,-0.1782,-0.1775,-0.1775,-0.1662,-0.1691,-0.1623,-0.1796,-0.1675,-0.1677,-0.1679,-0.168,-0.1681,-0.1897,-0.1888,-0.1926,-0.1915,-0.1902,-0.1859,-0.1799,-0.1812,-0.1771,-0.1748,-0.1827,-0.1792,-0.1774,-0.1696,-0.1654,-0.1561,-0.1617,-0.1516,-0.155,-0.1575,-0.1527,-0.1679,-0.1524,-0.1525,-0.1526,-0.1527,-0.1528,0,-0.1761,-0.1765,-0.1753,-0.1738,-0.1663,-0.1709,-0.1666,-0.16,-0.1542,-0.1581,-0.1577,-0.1584,-0.1501,-0.1497,-0.1427,-0.136,-0.1325,-0.1333,-0.1337,-0.131,-0.141,-0.1403,-0.1226,-0.1226,-0.1226,-0.1226,-0.1226,-0.1227,-0.1693,-0.1638,-0.1646,-0.1509,-0.148,-0.1352,-0.1311,-0.127,-0.1272,-0.1251,-0.1284,-0.1347,-0.1372,-0.1452,-0.1349,-0.1274,-0.1246,-0.1202,-0.1238,-0.1316,-0.1336,-0.1355,-0.1352,-0.1168,-0.1168,-0.1071,-0.107,-0.107]},{"header":{"parameterUnit":"m.s-1","parameterCategory":2,"la1":30.2991,"la2":30.254,"lo1":-89.0895,"lo2":-89.0444,"dy":0.0017,"dx":0.0017,"nx":28,"ny":28,"refTime":"2024-10-08T09:00:00:Z","depth":"0","parameterNumber":3,"parameterNumberName":"V-component_of_CURRENTS"},"data":[0,0,0,0,0,0,0,0,0,0,0,0,0,0,0,0,0,0,0,0,0,0,0,0,0,0,0,0,0,0,0,0,0,0,0,0,0,0,0,0,0,0,0,0,0,0,0,0,0,0,0,0,0,0,0,0,0,0,-0.0493,-0.0492,0,-0.0411,-0.041,-0.0409,-0.0362,-0.0362,-0.0362,-0.0362,-0.0246,-0.0243,-0.024,0,0,0,0,0,0,0,0,0,0,0,0,0,-0.0531,-0.0531,-0.0493,-0.0492,-0.0491,-0.0411,-0.041,-0.0408,-0.0362,-0.0362,-0.0362,-0.0362,-0.0247,-0.0244,-0.024,0,0,0,0,0,0,0,0,0,0,0,0,0,-0.0487,-0.0531,-0.0493,-0.0459,-0.0455,-0.0411,-0.041,-0.0408,-0.0362,-0.0362,-0.0362,-0.0362,-0.0248,-0.0244,-0.024,-0.0213,0,0,-0.0226,-0.0224,0,0,0,0,0,0,0,0,-0.049,-0.0485,-0.0465,-0.0461,-0.0457,-0.0398,-0.0381,-0.0342,-0.0362,-0.0396,-0.0362,-0.0362,-0.0295,-0.0286,-0.027,-0.0207,-0.0202,-0.0225,-0.0223,-0.0221,-0.0219,0,0,0,0,0,0,0,-0.0493,-0.0488,-0.0459,-0.0464,-0.0459,-0.0421,-0.0415,-0.0373,-0.0345,-0.0393,-0.039,-0.0383,-0.0292,-0.0274,-0.0267,-0.0201,-0.0225,-0.0221,-0.0219,-0.0217,-0.0084,-0.0084,0,0,0,0,0,0,-0.051,-0.0492,-0.0462,-0.0457,-0.0475,-0.0421,-0.0414,-0.0416,-0.0346,-0.0336,-0.0383,-0.0381,-0.0282,-0.0272,-0.0262,-0.0223,-0.0221,-0.0216,-0.0214,-0.0085,-0.0084,-0.0083,0,0,0,0,0,0,-0.0511,-0.0508,-0.0465,-0.0473,-0.0465,-0.0421,-0.0422,-0.0414,-0.0397,-0.0339,-0.0328,-0.0374,-0.0282,-0.0269,-0.022,-0.0219,-0.0214,-0.021,-0.0086,-0.0085,-0.0084,-0.0147,0,0,0,0,0,0,-0.0513,-0.0509,-0.0517,-0.0474,-0.0465,-0.0444,-0.0422,-0.0413,-0.0393,-0.039,-0.0328,-0.0317,-0.028,-0.0227,-0.0215,-0.0212,-0.0207,-0.0087,-0.0086,-0.0084,-0.0146,-0.0148,-0.015,0,0,0,0,0,-0.0514,-0.0529,-0.0518,-0.0514,-0.0477,-0.0444,-0.0436,-0.0403,-0.0393,-0.0387,-0.034,-0.0319,-0.0209,-0.0222,-0.0209,-0.0205,-0.0088,-0.0086,-0.0084,-0.0145,-0.0148,-0.015,0,0,0,0,0,0,-0.0548,-0.0524,-0.0511,-0.0517,-0.0485,-0.0437,-0.0431,-0.0407,-0.0366,-0.0363,-0.0309,-0.0294,-0.0251,-0.0214,-0.023,-0.016,-0.0145,-0.014,-0.0196,-0.0198,-0.02,-0.0216,-0.0203,0,0,0,0,0,-0.056,-0.0565,-0.0528,-0.0531,-0.0519,-0.0475,-0.0459,-0.0436,-0.0395,-0.0377,-0.0332,-0.028,-0.0233,-0.0206,-0.016,-0.0121,-0.0088,-0.0108,-0.011,-0.0112,-0.0114,-0.0064,-0.0062,-0.0078,-0.0078,-0.0078,0,0,-0.0575,-0.0561,-0.0564,-0.0538,-0.0512,-0.0499,-0.0465,-0.0445,-0.0431,-0.037,-0.0337,-0.0288,-0.0223,-0.0181,-0.0158,-0.0151,-0.009,-0.011,-0.0112,-0.0113,-0.0062,-0.0061,-0.006,-0.0076,-0.0077,-0.0077,0,0,-0.0605,-0.0593,-0.0606,-0.0583,-0.0551,-0.052,-0.0518,-0.0471,-0.0447,-0.0407,-0.0359,-0.031,-0.0239,-0.0192,-0.0159,-0.0142,-0.0104,-0.0126,-0.0149,-0.01,-0.0099,-0.0098,-0.006,-0.0055,-0.0126,-0.0126,-0.0126,0,-0.0625,-0.0636,-0.0602,-0.0602,-0.059,-0.0535,-0.0538,-0.0502,-0.0444,-0.042,-0.0406,-0.0291,-0.0244,-0.0183,-0.0177,-0.0149,-0.0118,-0.0151,-0.0106,-0.0103,-0.0101,-0.0062,-0.0056,-0.0128,-0.0128,-0.0128,-0.0128,0,-0.066,-0.0666,-0.0669,-0.0654,-0.0632,-0.0626,-0.0574,-0.0545,-0.0509,-0.0467,-0.0402,-0.033,-0.0263,-0.0238,-0.0203,-0.0156,-0.0139,-0.012,-0.0108,-0.0104,-0.0063,-0.0055,-0.0133,-0.0132,-0.0131,-0.013,0,0,-0.0706,-0.0702,-0.07,-0.0704,-0.0662,-0.0647,-0.0618,-0.0572,-0.0544,-0.0483,-0.0445,-0.036,-0.0318,-0.0278,-0.0223,-0.0177,-0.0136,-0.0147,-0.0143,-0.0125,-0.0036,0.0002,0.0014,-0.0112,-0.011,-0.0109,-0.0017,0,-0.0743,-0.0777,-0.075,-0.0759,-0.0769,-0.0707,-0.0678,-0.0624,-0.0567,-0.0512,-0.0431,-0.0374,-0.0334,-0.0301,-0.025,-0.0159,-0.0117,-0.0164,-0.0028,-0.0024,-0.0004,0.0025,0.006,0.0147,-0.0009,-0.0008,-0.0007,0,-0.078,-0.0799,-0.0837,-0.0816,-0.081,-0.08,-0.0741,-0.0707,-0.0611,-0.0563,-0.0491,-0.0425,-0.0342,-0.0314,-0.0172,-0.0204,-0.0131,-0.0064,-0.0059,0.0004,0.0029,0.0122,0.0168,0.0292,0.0006,0.0005,0.0004,0,-0.0838,-0.0848,-0.0887,-0.0883,-0.0854,-0.0845,-0.0815,-0.0729,-0.0687,-0.0598,-0.0555,-0.0451,-0.0392,-0.0289,-0.0154,-0.0163,0.0002,0.0009,0.011,0.0114,0.0185,0.0193,0.0355,0.0099,0.0099,0.0099,0.0099,0,-0.0892,-0.0912,-0.0922,-0.0941,-0.0955,-0.0906,-0.0881,-0.083,-0.0743,-0.0691,-0.0594,-0.053,-0.0382,-0.0268,-0.016,0.0007,-0.0001,0.0115,0.0146,0.0165,0.0169,0.0314,0.0356,0.0102,0.0102,0.0101,0.01,0,-0.0948,-0.0959,-0.0997,-0.0995,-0.0989,-0.0999,-0.0935,-0.0899,-0.0819,-0.075,-0.0726,-0.0582,-0.0429,-0.0273,-0.0089,0.0007,0.024,0.0211,0.0219,0.025,0.0448,0.0484,0.0674,0.0746,0.0336,0.0337,0.0338,0,-0.0984,-0.102,-0.1048,-0.106,-0.1064,-0.1057,-0.103,-0.0952,-0.0906,-0.0776,-0.0746,-0.0591,-0.0461,-0.0176,0.0026,0.0234,0.0322,0.0378,0.0369,0.0478,0.0541,0.0565,0.0613,0.0439,0.0441,0.0443,0.0444,0,-0.1049,-0.1064,-0.1098,-0.1129,-0.1131,-0.111,-0.1075,-0.1055,-0.0947,-0.0877,-0.076,-0.0653,-0.0367,-0.0104,0.0171,0.0295,0.0477,0.0418,0.0542,0.0649,0.0677,0.0754,0.0348,0.0459,0.0458,0.0456,0.0456,0.0455,-0.1088,-0.113,-0.1168,-0.119,-0.1181,-0.1151,-0.1129,-0.1078,-0.1012,-0.0884,-0.0782,-0.0579,-0.0208,0.0193,0.0335,0.0652,0.0613,0.0743,0.078,0.0797,0.0866,0.0484,0.0622,0.0621,0.0621,0.062,0.062,0,-0.1133,-0.117,-0.1206,-0.1221,-0.1198,-0.1181,-0.1133,-0.1084,-0.1015,-0.0876,-0.0738,-0.0304,0.0063,0.0401,0.0837,0.1005,0.1038,0.1088,0.1138,0.1171,0.0856,0.086,0.1042,0.1042,0.1042,0.1042,0.1042,0.1042,-0.1158,-0.1214,-0.1236,-0.1226,-0.121,-0.1159,-0.1128,-0.1063,-0.0952,-0.0697,-0.0445,-0.0246,0.0232,0.0914,0.1306,0.1342,0.148,0.1473,0.154,0.1326,0.1296,0.1268,0.1285,0.1553,0.1553,0.1851,0.1854,0.1856]}],[{"header":{"parameterUnit":"m.s-1","parameterCategory":2,"la1":30.2991,"la2":30.254,"lo1":-89.0895,"lo2":-89.0444,"dy":0.0017,"dx":0.0017,"nx":28,"ny":28,"refTime":"2024-10-08T09:00:00:Z","depth":"2","parameterNumber":2,"parameterNumberName":"U-component_of_CURRENTS"},"data":[0,0,0,0,0,0,0,0,0,0,0,0,0,0,0,0,0,0,0,0,0,0,0,0,0,0,0,0,0,0,0,0,0,0,0,0,0,0,0,0,0,0,0,0,0,0,0,0,0,0,0,0,0,0,0,0,0,0,-0.1901,-0.1902,0,-0.1915,-0.1915,-0.1914,-0.1882,-0.1881,-0.1881,-0.188,-0.1852,-0.1851,-0.1851,0,0,0,0,0,0,0,0,0,0,0,0,0,-0.1844,-0.1845,-0.1901,-0.1902,-0.1902,-0.1915,-0.1915,-0.1914,-0.1882,-0.1881,-0.188,-0.188,-0.1852,-0.1851,-0.1851,0,0,0,0,0,0,0,0,0,0,0,0,0,-0.1861,-0.1845,-0.1901,-0.189,-0.189,-0.1915,-0.1915,-0.1914,-0.1882,-0.1881,-0.188,-0.1879,-0.1852,-0.1852,-0.1851,-0.187,0,0,-0.1851,-0.1851,0,0,0,0,0,0,0,0,-0.186,-0.1862,-0.1892,-0.1891,-0.1891,-0.1899,-0.1884,-0.1899,-0.1882,-0.1881,-0.188,-0.1879,-0.1867,-0.1865,-0.1865,-0.1869,-0.1868,-0.1851,-0.1851,-0.1851,-0.185,0,0,0,0,0,0,0,-0.1859,-0.1862,-0.1903,-0.1892,-0.1892,-0.1884,-0.1885,-0.1887,-0.1876,-0.1881,-0.188,-0.1888,-0.1866,-0.1866,-0.1864,-0.1867,-0.1851,-0.1851,-0.185,-0.185,-0.1928,-0.1931,0,0,0,0,0,0,-0.1867,-0.1861,-0.1902,-0.1903,-0.1877,-0.1886,-0.1887,-0.1894,-0.1876,-0.1874,-0.1889,-0.1886,-0.1866,-0.1865,-0.1863,-0.1912,-0.1851,-0.185,-0.185,-0.1926,-0.1929,-0.1931,0,0,0,0,0,0,-0.1865,-0.187,-0.1902,-0.1885,-0.1889,-0.1889,-0.1897,-0.1895,-0.1898,-0.1884,-0.1879,-0.1895,-0.1865,-0.1863,-0.188,-0.1909,-0.185,-0.185,-0.1924,-0.1927,-0.193,-0.1992,0,0,0,0,0,0,-0.1863,-0.1869,-0.1876,-0.1886,-0.1891,-0.1923,-0.1898,-0.1896,-0.1907,-0.1904,-0.1887,-0.1883,-0.1864,-0.1881,-0.188,-0.1908,-0.185,-0.1921,-0.1925,-0.1929,-0.1987,-0.1997,-0.2005,0,0,0,0,0,-0.1861,-0.1877,-0.1877,-0.1882,-0.19,-0.1925,-0.1926,-0.1919,-0.1908,-0.1917,-0.1912,-0.1884,-0.1907,-0.1883,-0.1881,-0.1909,-0.1919,-0.1924,-0.1929,-0.1983,-0.1995,-0.2005,0,0,0,0,0,0,-0.1848,-0.1876,-0.1875,-0.1896,-0.1913,-0.1921,-0.193,-0.1929,-0.1932,-0.1928,-0.1907,-0.1904,-0.193,-0.1919,-0.1893,-0.1948,-0.1911,-0.1916,-0.1952,-0.1963,-0.1972,-0.1958,-0.185,0,0,0,0,0,-0.1853,-0.1873,-0.1895,-0.191,-0.1922,-0.1928,-0.1937,-0.1937,-0.1944,-0.1943,-0.1944,-0.1945,-0.1951,-0.1955,-0.1959,-0.1988,-0.1948,-0.2009,-0.2018,-0.2026,-0.2016,-0.1976,-0.1979,-0.1948,-0.1947,-0.1947,0,0,-0.1854,-0.1869,-0.1882,-0.191,-0.1919,-0.1949,-0.1929,-0.1951,-0.1972,-0.1942,-0.1975,-0.1975,-0.1967,-0.1998,-0.2009,-0.199,-0.2021,-0.2032,-0.2038,-0.2024,-0.1981,-0.1983,-0.1985,-0.1951,-0.195,-0.195,0,0,-0.1866,-0.188,-0.1902,-0.1925,-0.1951,-0.1964,-0.1976,-0.2,-0.2005,-0.2041,-0.2026,-0.2043,-0.2064,-0.2062,-0.2061,-0.2125,-0.2069,-0.2139,-0.2171,-0.2132,-0.2133,-0.2133,-0.2108,-0.2105,-0.2144,-0.2144,-0.2144,0,-0.1864,-0.1893,-0.1911,-0.194,-0.1963,-0.1976,-0.2008,-0.2023,-0.2053,-0.206,-0.2061,-0.2089,-0.2091,-0.2106,-0.2138,-0.2142,-0.2112,-0.2125,-0.214,-0.2139,-0.2138,-0.2111,-0.2108,-0.2148,-0.2147,-0.2147,-0.2146,0,-0.189,-0.1922,-0.1938,-0.1982,-0.2012,-0.2041,-0.2074,-0.2097,-0.2114,-0.2129,-0.2155,-0.2159,-0.2167,-0.2188,-0.2185,-0.2195,-0.2174,-0.2151,-0.2102,-0.2144,-0.2115,-0.211,-0.2153,-0.2151,-0.215,-0.2149,0,0,-0.1864,-0.1941,-0.1947,-0.1971,-0.2036,-0.2056,-0.2105,-0.2141,-0.2148,-0.2191,-0.2197,-0.224,-0.2233,-0.2233,-0.223,-0.2216,-0.2207,-0.2191,-0.2188,-0.2149,-0.2126,-0.2083,-0.2073,-0.2177,-0.2177,-0.2176,-0.2114,0,-0.1875,-0.1931,-0.1974,-0.2031,-0.2065,-0.2103,-0.2139,-0.2175,-0.2197,-0.2211,-0.222,-0.2229,-0.2252,-0.2247,-0.2243,-0.2208,-0.2193,-0.2226,-0.2105,-0.2102,-0.2043,-0.2065,-0.1923,-0.1852,-0.2108,-0.2107,-0.2107,0,-0.1878,-0.192,-0.198,-0.2044,-0.206,-0.2096,-0.2135,-0.217,-0.2199,-0.221,-0.2227,-0.2228,-0.2237,-0.2232,-0.2194,-0.2212,-0.2179,-0.2151,-0.2147,-0.2074,-0.2048,-0.1849,-0.1832,-0.2097,-0.2098,-0.2099,-0.2099,0,-0.1838,-0.1916,-0.196,-0.1989,-0.2071,-0.209,-0.2122,-0.2165,-0.2174,-0.2198,-0.2195,-0.2209,-0.2193,-0.2166,-0.215,-0.2159,-0.2085,-0.208,-0.201,-0.2007,-0.1844,-0.1828,-0.2032,-0.2032,-0.2032,-0.2032,-0.2032,0,-0.1831,-0.1861,-0.1939,-0.1968,-0.1989,-0.206,-0.2074,-0.2103,-0.2133,-0.2133,-0.2182,-0.2166,-0.2171,-0.2143,-0.2129,-0.2058,-0.2065,-0.201,-0.1982,-0.1868,-0.1855,-0.2031,-0.2031,-0.203,-0.203,-0.2031,-0.2031,0,-0.178,-0.1842,-0.1881,-0.1959,-0.1976,-0.1984,-0.203,-0.2029,-0.2078,-0.2071,-0.2076,-0.2113,-0.2085,-0.2085,-0.2031,-0.201,-0.1957,-0.1926,-0.1807,-0.1767,-0.1912,-0.1917,-0.1834,-0.1832,-0.183,-0.1828,-0.1827,0,-0.1756,-0.1781,-0.1849,-0.185,-0.1883,-0.1908,-0.1915,-0.1981,-0.1983,-0.2031,-0.2012,-0.2012,-0.1986,-0.192,-0.1879,-0.1825,-0.189,-0.1665,-0.166,-0.1907,-0.1889,-0.1897,-0.1904,-0.1477,-0.1473,-0.147,-0.1467,0,-0.1697,-0.1722,-0.175,-0.1765,-0.1773,-0.1781,-0.1804,-0.1801,-0.1873,-0.1874,-0.1877,-0.1866,-0.1829,-0.1717,-0.1667,-0.1621,-0.1669,-0.1596,-0.1845,-0.1563,-0.1568,-0.1552,-0.1571,-0.1437,-0.144,-0.1442,-0.1444,-0.1445,-0.1623,-0.1616,-0.1649,-0.1647,-0.1654,-0.1643,-0.1612,-0.1646,-0.164,-0.1631,-0.1704,-0.1647,-0.1642,-0.1493,-0.1419,-0.1367,-0.1483,-0.1418,-0.1428,-0.1442,-0.1426,-0.1429,-0.1269,-0.1271,-0.1273,-0.1274,-0.1275,0,-0.1522,-0.1528,-0.1523,-0.1515,-0.1475,-0.1526,-0.152,-0.1476,-0.1433,-0.1455,-0.1445,-0.1315,-0.1236,-0.1238,-0.1112,-0.109,-0.1077,-0.1044,-0.1028,-0.1058,-0.1084,-0.105,-0.0793,-0.0792,-0.079,-0.0789,0,0,-0.1472,-0.143,-0.1435,-0.1339,-0.133,-0.125,-0.1226,-0.1188,-0.1178,-0.1118,-0.1093,-0.1181,-0.1205,-0.1008,-0.0957,-0.0854,-0.0945,-0.0808,-0.1195,-0.1205,-0.1229,-0.1298,-0.128,0,0,0,0,0]},{"header":{"parameterUnit":"m.s-1","parameterCategory":2,"la1":30.2991,"la2":30.254,"lo1":-89.0895,"lo2":-89.0444,"dy":0.0017,"dx":0.0017,"nx":28,"ny":28,"refTime":"2024-10-08T09:00:00:Z","depth":"2","parameterNumber":3,"parameterNumberName":"V-component_of_CURRENTS"},"data":[0,0,0,0,0,0,0,0,0,0,0,0,0,0,0,0,0,0,0,0,0,0,0,0,0,0,0,0,0,0,0,0,0,0,0,0,0,0,0,0,0,0,0,0,0,0,0,0,0,0,0,0,0,0,0,0,0,0,-0.0218,-0.0217,0,-0.0159,-0.0158,-0.0158,-0.0124,-0.0123,-0.0123,-0.0123,-0.0052,-0.005,-0.0048,0,0,0,0,0,0,0,0,0,0,0,0,0,-0.025,-0.025,-0.0218,-0.0217,-0.0216,-0.0159,-0.0158,-0.0157,-0.0124,-0.0123,-0.0123,-0.0123,-0.0052,-0.005,-0.0048,0,0,0,0,0,0,0,0,0,0,0,0,0,-0.0217,-0.0249,-0.0218,-0.0193,-0.019,-0.0159,-0.0158,-0.0157,-0.0124,-0.0123,-0.0123,-0.0123,-0.0053,-0.005,-0.0048,-0.0032,0,0,-0.0039,-0.0038,0,0,0,0,0,0,0,0,-0.0219,-0.0216,-0.0197,-0.0195,-0.0192,-0.0149,-0.0143,-0.0115,-0.0124,-0.0148,-0.0123,-0.0123,-0.0084,-0.0078,-0.0067,-0.0029,-0.0026,-0.0039,-0.0037,-0.0036,-0.0035,0,0,0,0,0,0,0,-0.0222,-0.0218,-0.0194,-0.0197,-0.0193,-0.0168,-0.0164,-0.0138,-0.0116,-0.0146,-0.0143,-0.0138,-0.0082,-0.0069,-0.0065,-0.0025,-0.0039,-0.0036,-0.0035,-0.0034,0.0055,0.0056,0,0,0,0,0,0,-0.0233,-0.0221,-0.0195,-0.0192,-0.0206,-0.0168,-0.0163,-0.0162,-0.0117,-0.011,-0.0139,-0.0137,-0.0074,-0.0068,-0.0062,-0.0041,-0.0036,-0.0033,-0.0032,0.0055,0.0055,0.0056,0,0,0,0,0,0,-0.0234,-0.0232,-0.0198,-0.0205,-0.0199,-0.0168,-0.0167,-0.0161,-0.0151,-0.0111,-0.0104,-0.0135,-0.0074,-0.0066,-0.0036,-0.0038,-0.0032,-0.003,0.0054,0.0055,0.0056,0.0002,0,0,0,0,0,0,-0.0236,-0.0233,-0.0235,-0.0206,-0.0199,-0.0187,-0.0167,-0.016,-0.0148,-0.0146,-0.0106,-0.0099,-0.0073,-0.004,-0.0033,-0.0034,-0.0027,0.0053,0.0054,0.0056,0.0002,0.0001,-0.0001,0,0,0,0,0,-0.0237,-0.0245,-0.0236,-0.0232,-0.0204,-0.0187,-0.0181,-0.0157,-0.0149,-0.0147,-0.0114,-0.01,-0.0026,-0.0037,-0.0029,-0.0029,0.0052,0.0054,0.0055,0.0003,0.0001,-0.0001,0,0,0,0,0,0,-0.0258,-0.0241,-0.0231,-0.0232,-0.0214,-0.0182,-0.0179,-0.0162,-0.0135,-0.0133,-0.0094,-0.0085,-0.0059,-0.0032,-0.0045,0.0004,0.0016,0.002,-0.0026,-0.0028,-0.0029,-0.004,-0.0025,0,0,0,0,0,-0.0265,-0.027,-0.0244,-0.0246,-0.0239,-0.0209,-0.0199,-0.0184,-0.0157,-0.0145,-0.0117,-0.008,-0.0045,-0.0028,0.0004,0.0027,0.0057,0.0036,0.0034,0.0032,0.0032,0.0077,0.0078,0.0061,0.0061,0.0061,0,0,-0.0275,-0.0266,-0.0268,-0.0251,-0.0235,-0.023,-0.0203,-0.0194,-0.0186,-0.0141,-0.0124,-0.0089,-0.0039,-0.0012,0.0002,0.0009,0.0054,0.0034,0.0032,0.0032,0.0078,0.008,0.0081,0.0062,0.0062,0.0062,0,0,-0.0302,-0.0289,-0.0303,-0.029,-0.0272,-0.025,-0.025,-0.0222,-0.0204,-0.0181,-0.0143,-0.0108,-0.0063,-0.0025,0.0001,0.0012,0.0041,0.0021,0.0003,0.0046,0.0047,0.0049,0.0085,0.009,0.0021,0.0021,0.0021,0,-0.0315,-0.0328,-0.0303,-0.031,-0.0304,-0.0263,-0.0272,-0.0245,-0.021,-0.0193,-0.0183,-0.0102,-0.0067,-0.0019,-0.0015,0.0006,0.0032,0.0001,0.0042,0.0044,0.0046,0.0083,0.0089,0.0019,0.0019,0.0019,0.002,0,-0.0349,-0.0359,-0.0366,-0.0362,-0.0348,-0.0351,-0.0312,-0.0293,-0.0267,-0.0238,-0.0192,-0.0135,-0.0087,-0.0067,-0.0039,0.0,0.0014,0.003,0.0039,0.0044,0.0083,0.0091,0.0015,0.0016,0.0017,0.0017,0,0,-0.0381,-0.0391,-0.0394,-0.0405,-0.0378,-0.0372,-0.0351,-0.032,-0.0304,-0.0259,-0.0233,-0.0167,-0.0135,-0.0102,-0.0057,-0.0015,0.0023,0.0009,0.0012,0.0031,0.0114,0.0141,0.0153,0.0042,0.0043,0.0044,0.0132,0,-0.0418,-0.0457,-0.0439,-0.0462,-0.0479,-0.0431,-0.0413,-0.0375,-0.0332,-0.0295,-0.0224,-0.0185,-0.0147,-0.0125,-0.0077,0.0001,0.0042,-0.0002,0.0119,0.0122,0.0135,0.0162,0.0144,0.0222,0.0139,0.014,0.0141,0,-0.0454,-0.0479,-0.0522,-0.0522,-0.0521,-0.0518,-0.0479,-0.0458,-0.0385,-0.035,-0.0292,-0.0237,-0.0163,-0.0136,-0.0006,-0.0038,0.003,0.009,0.0095,0.0145,0.0164,0.0207,0.0239,0.0154,0.0153,0.0152,0.0152,0,-0.0505,-0.0528,-0.0569,-0.0573,-0.0566,-0.0563,-0.0542,-0.0481,-0.0456,-0.0386,-0.0357,-0.0265,-0.0214,-0.0117,0.0007,-0.0001,0.0151,0.0156,0.0246,0.0248,0.027,0.0273,0.0242,0.0242,0.0242,0.0242,0.0241,0,-0.0557,-0.0586,-0.06,-0.0628,-0.0651,-0.0619,-0.0615,-0.0575,-0.0514,-0.0482,-0.0396,-0.0344,-0.0207,-0.0101,0.0001,0.0153,0.0149,0.0251,0.0278,0.0252,0.0251,0.0223,0.0219,0.0245,0.0244,0.0244,0.0243,0,-0.0615,-0.0627,-0.0674,-0.0686,-0.0686,-0.0701,-0.0669,-0.0655,-0.0593,-0.0545,-0.0526,-0.0397,-0.0256,-0.0111,0.0059,0.0149,0.0286,0.0337,0.0295,0.0316,0.0352,0.0345,0.0444,0.0446,0.0447,0.0448,0.045,0,-0.0651,-0.069,-0.0727,-0.0746,-0.0756,-0.0765,-0.0761,-0.0705,-0.0679,-0.057,-0.0546,-0.0406,-0.0287,-0.0026,0.0152,0.0344,0.0337,0.043,0.0415,0.0359,0.0375,0.0366,0.0357,0.0422,0.0423,0.0423,0.0424,0,-0.0719,-0.0734,-0.0773,-0.0819,-0.0833,-0.0836,-0.0821,-0.0812,-0.0732,-0.0672,-0.0562,-0.0461,-0.0207,0.0009,0.0253,0.0359,0.0398,0.045,0.0419,0.037,0.0345,0.0358,0.0349,0.0429,0.0429,0.0428,0.0428,0.0428,-0.0757,-0.0802,-0.0848,-0.0882,-0.0894,-0.0887,-0.0877,-0.0842,-0.0793,-0.0674,-0.0581,-0.0397,-0.0199,0.016,0.0322,0.0473,0.0471,0.0509,0.0504,0.0499,0.0478,0.0456,0.0558,0.0558,0.0558,0.0558,0.0558,0,-0.0802,-0.0851,-0.0896,-0.0927,-0.0929,-0.0923,-0.0897,-0.0857,-0.079,-0.0667,-0.0537,-0.0293,-0.0049,0.0155,0.0403,0.0544,0.0522,0.0559,0.0502,0.0496,0.0491,0.0466,0.0545,0.0545,0.0545,0.0546,0,0,-0.0829,-0.0896,-0.0922,-0.0943,-0.095,-0.0929,-0.0906,-0.0838,-0.0738,-0.0598,-0.0456,-0.0274,-0.0025,0.0143,0.0317,0.0441,0.0428,0.0448,0.0447,0.0354,0.0347,0.0456,0.0411,0,0,0,0,0]}],[{"header":{"parameterUnit":"m.s-1","parameterCategory":2,"la1":30.2991,"la2":30.254,"lo1":-89.0895,"lo2":-89.0444,"dy":0.0017,"dx":0.0017,"nx":28,"ny":28,"refTime":"2024-10-08T09:00:00:Z","depth":"4","parameterNumber":2,"parameterNumberName":"U-component_of_CURRENTS"},"data":[0,0,0,0,0,0,0,0,0,0,0,0,0,0,0,0,0,0,0,0,0,0,0,0,0,0,0,0,0,0,0,0,0,0,0,0,0,0,0,0,0,0,0,0,0,0,0,0,0,0,0,0,0,0,0,0,0,0,-0.1155,-0.1156,0,-0.1209,-0.1209,-0.121,-0.1236,-0.1236,-0.1236,-0.1236,-0.1285,-0.1286,-0.1288,0,0,0,0,0,0,0,0,0,0,0,0,0,-0.1104,-0.1104,-0.1155,-0.1156,-0.1157,-0.1208,-0.1209,-0.121,-0.1236,-0.1236,-0.1236,-0.1236,-0.1285,-0.1286,-0.1288,0,0,0,0,0,0,0,0,0,0,0,0,0,-0.1138,-0.1104,-0.1155,-0.1176,-0.1179,-0.1208,-0.1209,-0.121,-0.1236,-0.1236,-0.1236,-0.1236,-0.1284,-0.1286,-0.1288,-0.1298,0,0,-0.1294,-0.1294,0,0,0,0,0,0,0,0,-0.1136,-0.1139,-0.1173,-0.1175,-0.1178,-0.1216,-0.1209,-0.1239,-0.1236,-0.1214,-0.1236,-0.1236,-0.1262,-0.1266,-0.1275,-0.13,-0.1302,-0.1294,-0.1295,-0.1296,-0.1296,0,0,0,0,0,0,0,-0.1133,-0.1138,-0.1176,-0.1173,-0.1177,-0.1193,-0.1197,-0.1215,-0.1236,-0.1216,-0.1218,-0.1225,-0.1263,-0.1273,-0.1276,-0.1303,-0.1294,-0.1295,-0.1297,-0.1297,-0.1368,-0.1369,0,0,0,0,0,0,-0.1127,-0.1135,-0.1174,-0.1177,-0.1157,-0.1194,-0.1199,-0.1203,-0.1236,-0.1241,-0.1225,-0.1226,-0.127,-0.1274,-0.1278,-0.1336,-0.1296,-0.1297,-0.1299,-0.1368,-0.1369,-0.1369,0,0,0,0,0,0,-0.1125,-0.1129,-0.1172,-0.1158,-0.1165,-0.1194,-0.1199,-0.1204,-0.1232,-0.1243,-0.1248,-0.1249,-0.127,-0.1275,-0.1308,-0.1336,-0.1298,-0.13,-0.1367,-0.1368,-0.1369,-0.1424,0,0,0,0,0,0,-0.1123,-0.1128,-0.1139,-0.1158,-0.1165,-0.1199,-0.1199,-0.1205,-0.1236,-0.1238,-0.1266,-0.1269,-0.127,-0.1305,-0.131,-0.1338,-0.1301,-0.1366,-0.1367,-0.1369,-0.1421,-0.1427,-0.1431,0,0,0,0,0,-0.1121,-0.1134,-0.1139,-0.1145,-0.1176,-0.1199,-0.1205,-0.1226,-0.1237,-0.1251,-0.1271,-0.1269,-0.1317,-0.1308,-0.1313,-0.1342,-0.1365,-0.1367,-0.1369,-0.1419,-0.1426,-0.1431,0,0,0,0,0,0,-0.112,-0.1139,-0.1145,-0.1163,-0.1184,-0.1204,-0.1224,-0.1238,-0.1266,-0.1274,-0.1283,-0.1289,-0.1324,-0.1324,-0.1313,-0.1365,-0.1339,-0.1342,-0.1376,-0.1382,-0.1387,-0.1387,-0.1303,0,0,0,0,0,-0.1123,-0.1138,-0.1156,-0.1174,-0.1185,-0.1209,-0.1226,-0.1239,-0.1262,-0.1276,-0.1297,-0.1315,-0.1332,-0.1351,-0.1361,-0.1397,-0.139,-0.1417,-0.1422,-0.1427,-0.1429,-0.1455,-0.1463,-0.1375,-0.1375,-0.1375,0,0,-0.1127,-0.1141,-0.115,-0.1175,-0.1194,-0.1215,-0.122,-0.125,-0.1275,-0.1276,-0.1324,-0.1334,-0.1343,-0.1378,-0.1394,-0.1387,-0.1444,-0.1429,-0.1433,-0.1432,-0.1457,-0.1466,-0.1474,-0.1376,-0.1376,-0.1376,0,0,-0.1138,-0.1156,-0.117,-0.1187,-0.1217,-0.1235,-0.1247,-0.1279,-0.1302,-0.1342,-0.1347,-0.1376,-0.1409,-0.1422,-0.1431,-0.1472,-0.1465,-0.1479,-0.1518,-0.1543,-0.1551,-0.1558,-0.1545,-0.155,-0.149,-0.149,-0.149,0,-0.1146,-0.1162,-0.1179,-0.1197,-0.122,-0.1245,-0.127,-0.1295,-0.1337,-0.1365,-0.1362,-0.1423,-0.1428,-0.1474,-0.1485,-0.1486,-0.1488,-0.1496,-0.1551,-0.1558,-0.1564,-0.1549,-0.1554,-0.1493,-0.1492,-0.1492,-0.1492,0,-0.1154,-0.118,-0.1193,-0.1224,-0.1251,-0.1278,-0.1311,-0.1349,-0.1382,-0.1409,-0.1466,-0.1478,-0.1516,-0.1522,-0.1517,-0.1568,-0.1551,-0.155,-0.1538,-0.1576,-0.1557,-0.1562,-0.1497,-0.1496,-0.1495,-0.1494,0,0,-0.1142,-0.119,-0.1198,-0.1223,-0.127,-0.1294,-0.1345,-0.14,-0.1447,-0.1484,-0.1542,-0.1569,-0.1587,-0.1596,-0.1602,-0.1623,-0.1656,-0.1611,-0.1612,-0.1601,-0.1694,-0.1573,-0.1566,-0.1678,-0.1679,-0.168,-0.1659,0,-0.1148,-0.1185,-0.1215,-0.1267,-0.1288,-0.1338,-0.1389,-0.1444,-0.1492,-0.1553,-0.158,-0.1628,-0.1613,-0.1639,-0.1662,-0.1658,-0.1673,-0.166,-0.1655,-0.1654,-0.1546,-0.1569,-0.1685,-0.1662,-0.1663,-0.1663,-0.1664,0,-0.1137,-0.117,-0.1216,-0.1295,-0.1314,-0.1357,-0.1451,-0.15,-0.1583,-0.1622,-0.1677,-0.1696,-0.1734,-0.1715,-0.1736,-0.1734,-0.172,-0.1709,-0.1708,-0.158,-0.1542,-0.1618,-0.1671,-0.1671,-0.167,-0.167,-0.1669,0,-0.1101,-0.1171,-0.1215,-0.1236,-0.1326,-0.1376,-0.1436,-0.1525,-0.1577,-0.1668,-0.1704,-0.1761,-0.1779,-0.1791,-0.1759,-0.1763,-0.1764,-0.1765,-0.1639,-0.1629,-0.1721,-0.1714,-0.1781,-0.1781,-0.1782,-0.1782,-0.1782,0,-0.1078,-0.1115,-0.1207,-0.1228,-0.1303,-0.1372,-0.1464,-0.1529,-0.1622,-0.167,-0.1738,-0.1761,-0.1802,-0.18,-0.1782,-0.1706,-0.1782,-0.164,-0.1621,-0.1741,-0.1737,-0.1723,-0.1716,-0.1781,-0.1781,-0.1781,-0.1781,0,-0.1018,-0.1077,-0.1134,-0.1244,-0.1283,-0.1337,-0.1467,-0.1522,-0.1617,-0.1677,-0.1703,-0.1766,-0.1756,-0.1766,-0.1764,-0.1705,-0.1666,-0.1623,-0.1726,-0.1714,-0.1509,-0.1506,-0.1485,-0.1481,-0.1477,-0.1474,-0.1471,0,-0.0987,-0.1006,-0.1128,-0.1171,-0.1226,-0.1321,-0.1382,-0.1504,-0.1549,-0.1652,-0.1656,-0.1689,-0.1709,-0.16,-0.1634,-0.1587,-0.1568,-0.1536,-0.1542,-0.1497,-0.1482,-0.1484,-0.1486,-0.1465,-0.1465,-0.1464,-0.1463,0,-0.0919,-0.0972,-0.1019,-0.1109,-0.1183,-0.1265,-0.1353,-0.1375,-0.1492,-0.1584,-0.1564,-0.1551,-0.1531,-0.1514,-0.148,-0.1453,-0.1556,-0.1498,-0.1505,-0.1511,-0.1473,-0.1462,-0.1468,-0.145,-0.1452,-0.1453,-0.1454,0,-0.0862,-0.0881,-0.0949,-0.1026,-0.1118,-0.1173,-0.1241,-0.1281,-0.1337,-0.144,-0.1423,-0.1455,-0.1508,-0.1443,-0.1417,-0.1374,-0.1358,-0.1316,-0.1333,-0.1348,-0.1312,-0.1245,-0.1132,0,0,0,0,0,-0.0796,-0.0806,-0.0863,-0.0943,-0.1038,-0.1094,-0.12,-0.1265,-0.1363,-0.1308,-0.1364,-0.1338,-0.1297,-0.1319,-0.1244,-0.1358,-0.1367,-0.1267,-0.133,-0.1379,-0.1394,-0.1365,0,0,0,0,0,0,-0.0738,-0.0779,-0.0817,-0.0859,-0.0902,-0.099,-0.1055,-0.1127,-0.1108,-0.1202,-0.1183,-0.1251,-0.1229,-0.1309,-0.1212,-0.1218,-0.1229,-0.1295,-0.1291,-0.1371,-0.1384,-0.1396,-0.1372,0,0,0,0,0]},{"header":{"parameterUnit":"m.s-1","parameterCategory":2,"la1":30.2991,"la2":30.254,"lo1":-89.0895,"lo2":-89.0444,"dy":0.0017,"dx":0.0017,"nx":28,"ny":28,"refTime":"2024-10-08T09:00:00:Z","depth":"4","parameterNumber":3,"parameterNumberName":"V-component_of_CURRENTS"},"data":[0,0,0,0,0,0,0,0,0,0,0,0,0,0,0,0,0,0,0,0,0,0,0,0,0,0,0,0,0,0,0,0,0,0,0,0,0,0,0,0,0,0,0,0,0,0,0,0,0,0,0,0,0,0,0,0,0,0,-0.0102,-0.0101,0,-0.0075,-0.0074,-0.0074,-0.0051,-0.005,-0.005,-0.005,-0.0008,-0.0007,-0.0006,0,0,0,0,0,0,0,0,0,0,0,0,0,-0.011,-0.011,-0.0102,-0.0101,-0.0101,-0.0075,-0.0074,-0.0074,-0.0051,-0.005,-0.005,-0.005,-0.0008,-0.0007,-0.0006,0,0,0,0,0,0,0,0,0,0,0,0,0,-0.0097,-0.011,-0.0102,-0.0087,-0.0085,-0.0075,-0.0074,-0.0074,-0.0051,-0.005,-0.005,-0.005,-0.0008,-0.0007,-0.0006,-0.0003,0,0,-0.0001,-0.0001,0,0,0,0,0,0,0,0,-0.0098,-0.0096,-0.0089,-0.0088,-0.0086,-0.0066,-0.0062,-0.005,-0.0051,-0.0063,-0.005,-0.005,-0.0027,-0.0024,-0.0019,-0.0002,0.0,-0.0001,-0.0,0.0,0.0001,0,0,0,0,0,0,0,-0.0099,-0.0097,-0.009,-0.0089,-0.0087,-0.0074,-0.0072,-0.0059,-0.0046,-0.0062,-0.006,-0.0059,-0.0025,-0.002,-0.0017,0.0001,-0.0001,-0.0,0.0001,0.0001,0.0036,0.0036,0,0,0,0,0,0,-0.0105,-0.0098,-0.0091,-0.009,-0.0092,-0.0074,-0.0072,-0.0072,-0.0047,-0.0043,-0.0059,-0.0058,-0.0023,-0.0019,-0.0016,-0.0009,0.0,0.0001,0.0002,0.0036,0.0036,0.0037,0,0,0,0,0,0,-0.0105,-0.0104,-0.0092,-0.0094,-0.0091,-0.0074,-0.0075,-0.0072,-0.0067,-0.0044,-0.004,-0.0057,-0.0022,-0.0018,-0.0007,-0.0007,0.0002,0.0003,0.0036,0.0036,0.0036,0.0003,0,0,0,0,0,0,-0.0105,-0.0105,-0.0108,-0.0094,-0.0091,-0.0091,-0.0076,-0.0072,-0.0066,-0.0064,-0.0042,-0.0037,-0.0022,-0.0009,-0.0005,-0.0005,0.0004,0.0036,0.0036,0.0036,0.0004,0.0002,-0.0,0,0,0,0,0,-0.0106,-0.0113,-0.0108,-0.0107,-0.0096,-0.0092,-0.0089,-0.0075,-0.0067,-0.0068,-0.0051,-0.0038,-0.0005,-0.0008,-0.0004,-0.0003,0.0036,0.0036,0.0036,0.0004,0.0002,-0.0,0,0,0,0,0,0,-0.0119,-0.0111,-0.0105,-0.011,-0.0103,-0.0088,-0.0088,-0.0078,-0.0066,-0.0064,-0.004,-0.0035,-0.0026,-0.0009,-0.0013,0.0009,0.0019,0.002,-0.0006,-0.0009,-0.001,-0.0015,0.0006,0,0,0,0,0,-0.0124,-0.0128,-0.0117,-0.0121,-0.0119,-0.0104,-0.01,-0.0092,-0.008,-0.0074,-0.0057,-0.0037,-0.0021,-0.0012,0.0002,0.0012,0.004,0.0018,0.0016,0.0014,0.0014,0.0059,0.0062,0.0037,0.0037,0.0037,0,0,-0.013,-0.0127,-0.0129,-0.0125,-0.0117,-0.012,-0.0101,-0.01,-0.01,-0.0072,-0.0066,-0.0046,-0.0021,-0.001,-0.0004,0.0003,0.0035,0.0014,0.0012,0.0013,0.006,0.0062,0.0065,0.0037,0.0037,0.0037,0,0,-0.0149,-0.0142,-0.0152,-0.015,-0.0145,-0.0135,-0.0136,-0.0123,-0.0113,-0.0108,-0.0084,-0.0063,-0.0045,-0.0021,-0.0008,-0.001,0.002,-0.0007,-0.0018,0.0026,0.0029,0.0031,0.0064,0.007,-0.0005,-0.0005,-0.0005,0,-0.0157,-0.017,-0.0155,-0.0165,-0.0167,-0.0144,-0.0156,-0.0143,-0.0128,-0.0119,-0.0111,-0.0068,-0.0048,-0.0024,-0.0025,-0.0014,0.0011,-0.0014,0.0024,0.0027,0.003,0.0063,0.007,-0.0006,-0.0006,-0.0006,-0.0006,0,-0.0182,-0.0195,-0.0201,-0.0206,-0.0203,-0.0212,-0.0194,-0.0186,-0.0171,-0.0154,-0.013,-0.0096,-0.0067,-0.0056,-0.0043,-0.0011,-0.0001,0.0013,0.0028,0.003,0.0065,0.0073,-0.0009,-0.0008,-0.0008,-0.0007,0,0,-0.0197,-0.0217,-0.022,-0.0235,-0.0228,-0.0232,-0.0226,-0.0214,-0.0207,-0.018,-0.0164,-0.0129,-0.0101,-0.0084,-0.0055,-0.0016,0.0026,0.0003,0.0006,0.0032,0.0117,0.0105,0.0112,0.0046,0.0047,0.0048,0.013,0,-0.0223,-0.0262,-0.0257,-0.0287,-0.0304,-0.0282,-0.028,-0.0262,-0.0236,-0.0211,-0.0162,-0.0139,-0.0113,-0.0099,-0.0054,0.0005,0.0045,0.0002,0.0113,0.0116,0.0103,0.0121,0.0052,0.0136,0.0138,0.0139,0.014,0,-0.0247,-0.0274,-0.0315,-0.0336,-0.0339,-0.0349,-0.0336,-0.033,-0.0284,-0.0261,-0.0216,-0.0175,-0.0117,-0.0095,0.0016,-0.0014,0.0047,0.0095,0.01,0.0107,0.0119,0.0136,0.0154,0.0153,0.0152,0.0151,0.015,0,-0.0273,-0.031,-0.0348,-0.0358,-0.0374,-0.0383,-0.0382,-0.0349,-0.0341,-0.0289,-0.0269,-0.0193,-0.0153,-0.0065,0.0035,0.0028,0.016,0.0166,0.0215,0.0214,0.0214,0.0211,0.0248,0.0248,0.0248,0.0248,0.0248,0,-0.0303,-0.0332,-0.0369,-0.0393,-0.0431,-0.0421,-0.0437,-0.0419,-0.0385,-0.0367,-0.0298,-0.0258,-0.0143,-0.0053,0.0035,0.0149,0.0166,0.0217,0.0238,0.0197,0.0191,0.022,0.0215,0.0251,0.025,0.025,0.0249,0,-0.0323,-0.0348,-0.04,-0.0437,-0.0449,-0.0476,-0.0487,-0.0488,-0.045,-0.0419,-0.0405,-0.0303,-0.0185,-0.0066,0.0083,0.0144,0.0255,0.0292,0.0235,0.0252,0.0278,0.0271,0.035,0.0351,0.0351,0.0351,0.0351,0,-0.0337,-0.0369,-0.0438,-0.0473,-0.0496,-0.053,-0.0546,-0.0527,-0.0516,-0.044,-0.042,-0.0309,-0.0229,-0.0021,0.0095,0.0262,0.0282,0.0331,0.0306,0.0277,0.029,0.0283,0.0275,0.0352,0.0352,0.0352,0.0352,0,-0.0362,-0.0391,-0.0435,-0.0512,-0.0553,-0.0589,-0.0604,-0.0599,-0.0556,-0.0527,-0.0417,-0.0304,-0.017,-0.0019,0.0111,0.023,0.0293,0.0334,0.0334,0.0311,0.028,0.0291,0.0283,0.0353,0.0353,0.0353,0.0353,0,-0.0371,-0.0414,-0.0474,-0.054,-0.0596,-0.0623,-0.0631,-0.06,-0.058,-0.0485,-0.045,-0.0294,-0.0206,-0.0034,0.0088,0.0199,0.0221,0.0244,0.0249,0.0249,0.0189,0.0133,0.0185,0,0,0,0,0,-0.0371,-0.0422,-0.0491,-0.0561,-0.0618,-0.0643,-0.0654,-0.0646,-0.0603,-0.0529,-0.0484,-0.0351,-0.0155,-0.0067,0.0044,0.0076,0.0223,0.0205,0.0248,0.0359,0.0358,0.0303,0,0,0,0,0,0,-0.0366,-0.0437,-0.0488,-0.0562,-0.0607,-0.0654,-0.0661,-0.0632,-0.0579,-0.0521,-0.0413,-0.0342,-0.0151,-0.0216,0.0042,0.0076,0.0113,0.0302,0.0304,0.036,0.0359,0.0358,0.0301,0,0,0,0,0]}]]